Index of /ubuntu/dists

[ICO]NameLast modifiedSize

[PARENTDIR]Parent Directory  -
[DIR]trusty/2015-10-07 06:44 -
[DIR]xenial/2016-04-21 02:43 -
[DIR]trusty-backports/2017-12-15 03:49 -
[DIR]bionic/2018-04-26 18:38 -
[DIR]focal/2020-04-23 12:34 -
[DIR]jammy/2022-04-21 12:16 -
[DIR]trusty-proposed/2023-01-03 02:34 -
[DIR]lunar/2023-04-20 09:51 -
[DIR]devel-backports/2023-05-02 10:29 -
[DIR]mantic-backports/2023-05-02 10:29 -
[DIR]devel-security/2023-05-02 10:57 -
[DIR]mantic-security/2023-05-02 10:57 -
[DIR]devel-updates/2023-05-02 10:57 -
[DIR]mantic-updates/2023-05-02 10:57 -
[DIR]trusty-security/2023-06-18 11:53 -
[DIR]trusty-updates/2023-06-18 11:53 -
[DIR]kinetic/2023-09-11 21:16 -
[DIR]bionic-proposed/2023-09-22 11:10 -
[DIR]xenial-proposed/2023-09-22 11:12 -
[DIR]lunar-security/2023-09-24 01:19 -
[DIR]lunar-updates/2023-09-24 01:20 -
[DIR]lunar-backports/2023-09-24 01:20 -
[DIR]jammy-backports/2023-09-24 01:21 -
[DIR]focal-security/2023-09-24 01:22 -
[DIR]focal-proposed/2023-09-24 01:24 -
[DIR]focal-backports/2023-09-24 01:25 -
[DIR]bionic-security/2023-09-24 01:26 -
[DIR]bionic-updates/2023-09-24 01:28 -
[DIR]bionic-backports/2023-09-24 01:28 -
[DIR]xenial-security/2023-09-24 01:29 -
[DIR]xenial-updates/2023-09-24 01:30 -
[DIR]xenial-backports/2023-09-24 01:30 -
[DIR]devel/2023-09-24 02:27 -
[DIR]mantic/2023-09-24 02:27 -
[DIR]devel-proposed/2023-09-24 02:27 -
[DIR]mantic-proposed/2023-09-24 02:27 -
[DIR]lunar-proposed/2023-09-24 02:27 -
[DIR]jammy-security/2023-09-24 02:28 -
[DIR]jammy-updates/2023-09-24 02:28 -
[DIR]jammy-proposed/2023-09-24 02:28 -
[DIR]focal-updates/2023-09-24 02:30 -